Location: Unspecified
(48.7670°N, 0.0000°E)
Time: 17:38:43
(UTC+00:00)

Vanguard 2 Rocket - Pass Details

Date: 19 June 2019
Orbit: 553 x 3327 km, 32.9° (Epoch: 18 October)

Event Time Altitude Azimuth Distance (km) Brightness Sun altitude
Rises 00:25:25 0° 248° (WSW) 5,073 10.4 -17.6°
Reaches altitude 10° 00:28:28 10° 241° (WSW) 4,408 10.1 -17.6°
Maximum altitude 00:40:32 44° 176° (S) 3,439 9.3 -17.3°
Drops below altitude 10° 00:58:02 10° 113° (ESE) 6,251 11.0 -16.7°
Sets 01:03:24 0° 108° (ESE) 7,313 11.5 -16.5°
